Time,TemperatureF,DewpointF,PressureIn,WindDirection,WindDirectionDegrees,WindSpeedMPH,WindSpeedGustMPH,Humidity,HourlyPrecipIn,Conditions,Clouds,dailyrainin,SoftwareType,DateUTC
2013-05-12 00:02:00,64.0,53.0,30.13,NNE,13,0.0,0.0,67,0.00,,,0.00,,2013-05-12 05:02:00,
2013-05-12 00:11:00,64.0,53.0,30.13,NNE,13,0.0,0.0,67,0.00,,,0.00,,2013-05-12 05:11:00,
2013-05-12 00:22:00,64.0,52.0,30.13,North,5,1.0,3.0,66,0.00,,,0.00,,2013-05-12 05:22:00,
2013-05-12 00:32:00,65.0,53.0,30.13,North,5,4.0,6.0,64,0.00,,,0.00,,2013-05-12 05:32:00,
2013-05-12 00:42:00,65.0,53.0,30.13,North,5,4.0,6.0,64,0.00,,,0.00,,2013-05-12 05:42:00,
2013-05-12 00:52:00,66.0,53.0,30.13,North,0,2.0,7.0,63,0.00,,,0.00,,2013-05-12 05:52:00,
2013-05-12 01:01:00,66.0,53.0,30.14,North,0,2.0,5.0,64,0.00,,,0.00,,2013-05-12 06:01:00,
2013-05-12 01:11:00,65.0,53.0,30.14,North,355,5.0,6.0,66,0.00,,,0.00,,2013-05-12 06:11:00,
2013-05-12 01:21:00,65.0,53.0,30.14,North,355,5.0,6.0,66,0.00,,,0.00,,2013-05-12 06:21:00,
2013-05-12 01:32:00,65.0,54.0,30.14,North,355,5.0,7.0,68,0.00,,,0.00,,2013-05-12 06:32:00,
2013-05-12 01:42:00,65.0,55.0,30.14,North,349,2.0,6.0,69,0.00,,,0.00,,2013-05-12 06:42:00,
2013-05-12 01:52:00,65.0,55.0,30.14,North,349,2.0,6.0,69,0.00,,,0.00,,2013-05-12 06:52:00,
2013-05-12 02:01:00,65.0,55.0,30.14,North,349,1.0,3.0,69,0.00,,,0.00,,2013-05-12 07:01:00,
2013-05-12 02:11:00,65.0,55.0,30.14,North,349,2.0,5.0,69,0.00,,,0.00,,2013-05-12 07:11:00,
2013-05-12 02:21:00,65.0,55.0,30.14,North,349,2.0,5.0,69,0.00,,,0.00,,2013-05-12 07:21:00,
2013-05-12 02:32:00,65.0,55.0,30.14,North,350,3.0,7.0,70,0.00,,,0.00,,2013-05-12 07:32:00,
2013-05-12 02:42:00,65.0,55.0,30.14,North,350,3.0,7.0,70,0.00,,,0.00,,2013-05-12 07:42:00,
2013-05-12 02:52:00,65.0,55.0,30.14,North,350,3.0,6.0,70,0.00,,,0.00,,2013-05-12 07:52:00,
2013-05-12 03:02:00,64.0,54.0,30.14,North,355,3.0,6.0,70,0.00,,,0.00,,2013-05-12 08:02:00,
2013-05-12 03:11:00,64.0,54.0,30.14,North,355,2.0,5.0,71,0.00,,,0.00,,2013-05-12 08:11:00,
2013-05-12 03:21:00,64.0,54.0,30.14,North,355,2.0,5.0,71,0.00,,,0.00,,2013-05-12 08:21:00,
2013-05-12 03:32:00,64.0,54.0,30.14,North,355,3.0,6.0,70,0.00,,,0.00,,2013-05-12 08:32:00,
2013-05-12 03:41:00,64.0,54.0,30.14,North,355,3.0,6.0,70,0.00,,,0.00,,2013-05-12 08:41:00,
2013-05-12 03:53:00,63.0,52.0,30.14,North,351,3.0,7.0,67,0.00,,,0.00,,2013-05-12 08:53:00,
2013-05-12 04:01:00,63.0,51.0,30.14,North,0,3.0,8.0,65,0.00,,,0.00,,2013-05-12 09:01:00,
2013-05-12 04:11:00,63.0,51.0,30.15,North,0,5.0,7.0,64,0.00,,,0.00,,2013-05-12 09:11:00,
2013-05-12 04:21:00,63.0,51.0,30.15,North,0,5.0,7.0,64,0.00,,,0.00,,2013-05-12 09:21:00,
2013-05-12 04:33:00,62.0,49.0,30.15,North,5,3.0,7.0,63,0.00,,,0.00,,2013-05-12 09:33:00,
2013-05-12 04:42:00,62.0,49.0,30.15,North,5,3.0,7.0,63,0.00,,,0.00,,2013-05-12 09:42:00,
2013-05-12 04:53:00,62.0,50.0,30.15,North,5,2.0,6.0,64,0.00,,,0.00,,2013-05-12 09:53:00,
2013-05-12 05:03:00,61.0,49.0,30.16,North,5,1.0,5.0,64,0.00,,,0.00,,2013-05-12 10:03:00,
2013-05-12 05:12:00,61.0,49.0,30.16,North,5,1.0,5.0,64,0.00,,,0.00,,2013-05-12 10:12:00,
2013-05-12 05:22:00,61.0,49.0,30.16,North,5,2.0,5.0,64,0.00,,,0.00,,2013-05-12 10:22:00,
2013-05-12 05:33:00,60.0,48.0,30.16,North,5,2.0,5.0,64,0.00,,,0.00,,2013-05-12 10:33:00,
2013-05-12 05:42:00,60.0,48.0,30.16,North,5,2.0,5.0,64,0.00,,,0.00,,2013-05-12 10:42:00,
2013-05-12 05:52:00,60.0,48.0,30.16,North,5,2.0,5.0,64,0.00,,,0.00,,2013-05-12 10:52:00,
2013-05-12 06:02:00,59.0,47.0,30.17,North,5,1.0,5.0,64,0.00,,,0.00,,2013-05-12 11:02:00,
2013-05-12 06:12:00,59.0,47.0,30.17,North,5,1.0,5.0,64,0.00,,,0.00,,2013-05-12 11:12:00,
2013-05-12 06:21:00,59.0,47.0,30.17,North,5,0.0,2.0,64,0.00,,,0.00,,2013-05-12 11:21:00,
2013-05-12 06:32:00,58.0,46.0,30.18,North,5,0.0,1.0,64,0.00,,,0.00,,2013-05-12 11:32:00,
2013-05-12 06:42:00,57.0,46.0,30.19,North,5,0.0,0.0,66,0.00,,,0.00,,2013-05-12 11:42:00,
2013-05-12 06:52:00,57.0,46.0,30.19,North,5,0.0,0.0,66,0.00,,,0.00,,2013-05-12 11:52:00,
2013-05-12 07:01:00,56.0,46.0,30.20,North,5,0.0,0.0,68,0.00,,,0.00,,2013-05-12 12:01:00,
2013-05-12 07:11:00,56.0,44.0,30.21,North,5,0.0,0.0,63,0.00,,,0.00,,2013-05-12 12:11:00,
2013-05-12 07:21:00,56.0,44.0,30.21,North,5,0.0,0.0,63,0.00,,,0.00,,2013-05-12 12:21:00,
2013-05-12 07:32:00,58.0,45.0,30.21,North,5,0.0,0.0,62,0.00,,,0.00,,2013-05-12 12:32:00,
2013-05-12 07:41:00,58.0,45.0,30.21,North,5,0.0,0.0,62,0.00,,,0.00,,2013-05-12 12:41:00,
2013-05-12 07:52:00,59.0,43.0,30.22,North,5,1.0,3.0,56,0.00,,,0.00,,2013-05-12 12:52:00,
2013-05-12 08:01:00,61.0,43.0,30.22,North,5,2.0,5.0,51,0.00,,,0.00,,2013-05-12 13:01:00,
2013-05-12 08:11:00,61.0,43.0,30.22,North,5,2.0,5.0,51,0.00,,,0.00,,2013-05-12 13:11:00,
2013-05-12 08:21:00,61.0,41.0,30.22,NNE,29,6.0,8.0,48,0.00,,,0.00,,2013-05-12 13:21:00,
2013-05-12 08:32:00,62.0,42.0,30.22,NE,48,5.0,8.0,47,0.00,,,0.00,,2013-05-12 13:32:00,
2013-05-12 08:41:00,62.0,42.0,30.22,NE,48,5.0,8.0,47,0.00,,,0.00,,2013-05-12 13:41:00,
2013-05-12 08:52:00,63.0,41.0,30.22,NE,52,6.0,12.0,45,0.00,,,0.00,,2013-05-12 13:52:00,
2013-05-12 09:01:00,63.0,40.0,30.22,NE,49,7.0,12.0,43,0.00,,,0.00,,2013-05-12 14:01:00,
2013-05-12 09:11:00,63.0,40.0,30.22,NE,49,7.0,12.0,43,0.00,,,0.00,,2013-05-12 14:11:00,
2013-05-12 09:21:00,64.0,41.0,30.23,ENE,63,6.0,13.0,43,0.00,,,0.00,,2013-05-12 14:21:00,
2013-05-12 09:31:00,65.0,41.0,30.24,ENE,68,6.0,10.0,41,0.00,,,0.00,,2013-05-12 14:31:00,
2013-05-12 09:42:00,66.0,39.0,30.23,ENE,67,9.0,15.0,37,0.00,,,0.00,,2013-05-12 14:42:00,
2013-05-12 09:52:00,66.0,39.0,30.23,ENE,67,9.0,15.0,37,0.00,,,0.00,,2013-05-12 14:52:00,
2013-05-12 10:01:00,66.0,38.0,30.23,ENE,67,9.0,14.0,36,0.00,,,0.00,,2013-05-12 15:01:00,
2013-05-12 10:11:00,66.0,38.0,30.23,ENE,67,9.0,14.0,36,0.00,,,0.00,,2013-05-12 15:11:00,
2013-05-12 10:21:00,66.0,37.0,30.23,NNE,24,10.0,16.0,34,0.00,,,0.00,,2013-05-12 15:21:00,
2013-05-12 10:34:00,67.0,38.0,30.23,ENE,60,8.0,13.0,34,0.00,,,0.00,,2013-05-12 15:34:00,
2013-05-12 10:42:00,67.0,38.0,30.23,ENE,60,8.0,13.0,34,0.00,,,0.00,,2013-05-12 15:42:00,
2013-05-12 10:53:00,68.0,38.0,30.23,ENE,70,3.0,10.0,33,0.00,,,0.00,,2013-05-12 15:53:00,
2013-05-12 11:02:00,69.0,39.0,30.23,ENE,58,2.0,13.0,33,0.00,,,0.00,,2013-05-12 16:02:00,
2013-05-12 11:12:00,69.0,37.0,30.23,ENE,59,2.0,12.0,31,0.00,,,0.00,,2013-05-12 16:12:00,
2013-05-12 11:23:00,69.0,37.0,30.23,ENE,59,2.0,12.0,31,0.00,,,0.00,,2013-05-12 16:23:00,
2013-05-12 11:32:00,70.0,38.0,30.23,East,79,2.0,7.0,31,0.00,,,0.00,,2013-05-12 16:32:00,
2013-05-12 11:42:00,70.0,38.0,30.23,East,79,2.0,7.0,31,0.00,,,0.00,,2013-05-12 16:42:00,
2013-05-12 11:52:00,71.0,38.0,30.24,ENE,73,4.0,8.0,30,0.00,,,0.00,,2013-05-12 16:52:00,
2013-05-12 12:02:00,72.0,38.0,30.24,ENE,61,6.0,9.0,29,0.00,,,0.00,,2013-05-12 17:02:00,
2013-05-12 12:12:00,71.0,39.0,30.23,SE,128,3.0,9.0,31,0.00,,,0.00,,2013-05-12 17:12:00,
2013-05-12 12:22:00,71.0,39.0,30.23,SE,128,3.0,9.0,31,0.00,,,0.00,,2013-05-12 17:22:00,
2013-05-12 12:32:00,72.0,40.0,30.23,ESE,119,1.0,7.0,31,0.00,,,0.00,,2013-05-12 17:32:00,
2013-05-12 12:42:00,73.0,41.0,30.23,SE,138,5.0,9.0,32,0.00,,,0.00,,2013-05-12 17:42:00,
2013-05-12 12:52:00,73.0,41.0,30.23,SE,138,5.0,9.0,32,0.00,,,0.00,,2013-05-12 17:52:00,
2013-05-12 13:01:00,73.0,40.0,30.22,ENE,73,1.0,5.0,30,0.00,,,0.00,,2013-05-12 18:01:00,
2013-05-12 13:12:00,73.0,40.0,30.22,ENE,73,1.0,5.0,30,0.00,,,0.00,,2013-05-12 18:12:00,
2013-05-12 13:22:00,74.0,41.0,30.22,ESE,121,2.0,10.0,30,0.00,,,0.00,,2013-05-12 18:22:00,
2013-05-12 13:32:00,74.0,40.0,30.21,ESE,118,4.0,8.0,29,0.00,,,0.00,,2013-05-12 18:32:00,
2013-05-12 13:42:00,74.0,40.0,30.21,ESE,118,4.0,8.0,29,0.00,,,0.00,,2013-05-12 18:42:00,
2013-05-12 13:52:00,74.0,40.0,30.21,East,83,1.0,7.0,29,0.00,,,0.00,,2013-05-12 18:52:00,
2013-05-12 14:01:00,75.0,40.0,30.20,ESE,104,1.0,5.0,28,0.00,,,0.00,,2013-05-12 19:01:00,
2013-05-12 14:11:00,75.0,40.0,30.20,ESE,104,1.0,5.0,28,0.00,,,0.00,,2013-05-12 19:11:00,
2013-05-12 14:21:00,75.0,40.0,30.19,ESE,104,1.0,8.0,28,0.00,,,0.00,,2013-05-12 19:21:00,
2013-05-12 14:32:00,75.0,41.0,30.19,ESE,116,0.0,1.0,29,0.00,,,0.00,,2013-05-12 19:32:00,
2013-05-12 14:42:00,77.0,40.0,30.19,ESE,118,0.0,1.0,27,0.00,,,0.00,,2013-05-12 19:42:00,
2013-05-12 14:52:00,77.0,40.0,30.19,ESE,118,0.0,1.0,27,0.00,,,0.00,,2013-05-12 19:52:00,
2013-05-12 15:02:00,76.0,39.0,30.18,East,101,0.0,5.0,26,0.00,,,0.00,,2013-05-12 20:02:00,
2013-05-12 15:11:00,77.0,35.0,30.17,ENE,65,3.0,8.0,22,0.00,,,0.00,,2013-05-12 20:11:00,
2013-05-12 15:21:00,77.0,35.0,30.17,ENE,65,3.0,8.0,22,0.00,,,0.00,,2013-05-12 20:21:00,
2013-05-12 15:32:00,78.0,36.0,30.16,NE,56,5.0,7.0,22,0.00,,,0.00,,2013-05-12 20:32:00,
2013-05-12 15:42:00,77.0,36.0,30.16,ENE,71,0.0,6.0,23,0.00,,,0.00,,2013-05-12 20:42:00,
2013-05-12 15:52:00,77.0,36.0,30.16,ENE,71,0.0,6.0,23,0.00,,,0.00,,2013-05-12 20:52:00,
2013-05-12 16:01:00,78.0,38.0,30.16,NE,54,5.0,8.0,24,0.00,,,0.00,,2013-05-12 21:01:00,
2013-05-12 16:11:00,79.0,38.0,30.15,NE,39,4.0,7.0,23,0.00,,,0.00,,2013-05-12 21:11:00,
2013-05-12 16:21:00,79.0,38.0,30.15,NE,39,4.0,7.0,23,0.00,,,0.00,,2013-05-12 21:21:00,
2013-05-12 16:33:00,78.0,38.0,30.15,ENE,57,2.0,5.0,24,0.00,,,0.00,,2013-05-12 21:33:00,
2013-05-12 16:42:00,78.0,38.0,30.15,ENE,57,2.0,5.0,24,0.00,,,0.00,,2013-05-12 21:42:00,
2013-05-12 16:53:00,79.0,38.0,30.15,ENE,69,1.0,3.0,23,0.00,,,0.00,,2013-05-12 21:53:00,
2013-05-12 17:02:00,78.0,37.0,30.15,ESE,121,0.0,2.0,23,0.00,,,0.00,,2013-05-12 22:02:00,
2013-05-12 17:12:00,78.0,38.0,30.14,East,101,0.0,3.0,24,0.00,,,0.00,,2013-05-12 22:12:00,
2013-05-12 17:23:00,78.0,38.0,30.14,East,101,0.0,3.0,24,0.00,,,0.00,,2013-05-12 22:23:00,
2013-05-12 17:32:00,78.0,39.0,30.14,East,86,0.0,3.0,25,0.00,,,0.00,,2013-05-12 22:32:00,
2013-05-12 17:42:00,78.0,39.0,30.14,East,86,0.0,3.0,25,0.00,,,0.00,,2013-05-12 22:42:00,
2013-05-12 17:52:00,79.0,42.0,30.13,South,177,6.0,12.0,27,0.00,,,0.00,,2013-05-12 22:52:00,
2013-05-12 18:02:00,78.0,40.0,30.13,SE,127,4.0,8.0,26,0.00,,,0.00,,2013-05-12 23:02:00,
2013-05-12 18:12:00,77.0,41.0,30.12,South,171,6.0,10.0,28,0.00,,,0.00,,2013-05-12 23:12:00,
2013-05-12 18:22:00,77.0,41.0,30.12,South,171,6.0,10.0,28,0.00,,,0.00,,2013-05-12 23:22:00,
2013-05-12 18:32:00,77.0,40.0,30.12,SSE,159,0.0,3.0,27,0.00,,,0.00,,2013-05-12 23:32:00,
2013-05-12 18:42:00,77.0,40.0,30.12,SSE,159,0.0,3.0,27,0.00,,,0.00,,2013-05-12 23:42:00,
2013-05-12 18:52:00,77.0,40.0,30.11,SE,146,5.0,9.0,27,0.00,,,0.00,,2013-05-12 23:52:00,
2013-05-12 19:01:00,77.0,41.0,30.11,SSE,155,1.0,3.0,28,0.00,,,0.00,,2013-05-13 00:01:00,
2013-05-12 19:11:00,77.0,41.0,30.11,SSE,155,1.0,3.0,28,0.00,,,0.00,,2013-05-13 00:11:00,
2013-05-12 19:21:00,77.0,40.0,30.10,SSE,154,2.0,5.0,27,0.00,,,0.00,,2013-05-13 00:21:00,
2013-05-12 19:32:00,76.0,41.0,30.10,SE,138,2.0,5.0,29,0.00,,,0.00,,2013-05-13 00:32:00,
2013-05-12 19:41:00,76.0,43.0,30.11,SE,138,1.0,2.0,31,0.00,,,0.00,,2013-05-13 00:41:00,
2013-05-12 19:52:00,76.0,43.0,30.11,SE,138,1.0,2.0,31,0.00,,,0.00,,2013-05-13 00:52:00,
2013-05-12 20:01:00,75.0,44.0,30.11,SE,138,1.0,3.0,33,0.00,,,0.00,,2013-05-13 01:01:00,
2013-05-12 20:11:00,75.0,44.0,30.11,SE,138,1.0,3.0,33,0.00,,,0.00,,2013-05-13 01:11:00,
2013-05-12 20:22:00,75.0,45.0,30.11,SE,138,0.0,1.0,35,0.00,,,0.00,,2013-05-13 01:22:00,
2013-05-12 20:31:00,73.0,47.0,30.11,SE,138,0.0,0.0,39,0.00,,,0.00,,2013-05-13 01:31:00,
2013-05-12 20:41:00,73.0,47.0,30.11,SE,138,0.0,0.0,39,0.00,,,0.00,,2013-05-13 01:41:00,
2013-05-12 20:52:00,72.0,46.0,30.10,SE,138,0.0,0.0,40,0.00,,,0.00,,2013-05-13 01:52:00,
2013-05-12 21:01:00,70.0,45.0,30.11,SE,138,0.0,2.0,41,0.00,,,0.00,,2013-05-13 02:01:00,
2013-05-12 21:11:00,70.0,45.0,30.11,SE,138,0.0,2.0,41,0.00,,,0.00,,2013-05-13 02:11:00,
2013-05-12 21:21:00,69.0,45.0,30.11,SE,138,1.0,2.0,42,0.00,,,0.00,,2013-05-13 02:21:00,
2013-05-12 21:31:00,68.0,45.0,30.12,SE,146,2.0,6.0,43,0.00,,,0.00,,2013-05-13 02:31:00,
2013-05-12 21:41:00,68.0,45.0,30.12,SE,146,2.0,6.0,43,0.00,,,0.00,,2013-05-13 02:41:00,
2013-05-12 21:52:00,67.0,44.0,30.12,SE,146,1.0,3.0,44,0.00,,,0.00,,2013-05-13 02:52:00,
2013-05-12 22:01:00,66.0,44.0,30.13,SE,146,2.0,5.0,45,0.00,,,0.00,,2013-05-13 03:01:00,
2013-05-12 22:11:00,66.0,45.0,30.14,SE,146,1.0,3.0,46,0.00,,,0.00,,2013-05-13 03:11:00,
2013-05-12 22:21:00,66.0,45.0,30.14,SE,146,1.0,3.0,46,0.00,,,0.00,,2013-05-13 03:21:00,
2013-05-12 22:32:00,65.0,44.0,30.15,SE,146,2.0,5.0,47,0.00,,,0.00,,2013-05-13 03:32:00,
2013-05-12 22:42:00,65.0,44.0,30.15,SE,146,2.0,5.0,47,0.00,,,0.00,,2013-05-13 03:42:00,
2013-05-12 22:53:00,65.0,45.0,30.15,SSE,149,3.0,6.0,49,0.00,,,0.00,,2013-05-13 03:53:00,
2013-05-12 23:02:00,64.0,44.0,30.14,SSE,150,2.0,5.0,49,0.00,,,0.00,,2013-05-13 04:02:00,
2013-05-12 23:12:00,64.0,44.0,30.14,SSE,150,2.0,5.0,49,0.00,,,0.00,,2013-05-13 04:12:00,
2013-05-12 23:23:00,64.0,44.0,30.15,SSE,150,2.0,5.0,49,0.00,,,0.00,,2013-05-13 04:23:00,
2013-05-12 23:32:00,63.0,44.0,30.16,SSE,150,1.0,3.0,50,0.00,,,0.00,,2013-05-13 04:32:00,
2013-05-12 23:42:00,63.0,44.0,30.16,SSE,150,1.0,3.0,50,0.00,,,0.00,,2013-05-13 04:42:00,
2013-05-12 23:52:00,63.0,45.0,30.16,SSE,150,1.0,3.0,51,0.00,,,0.00,,2013-05-13 04:52:00,